• In Uzbekistan
  • List of Countries
  • For 7 days
  • Water Temperature
  • Satellite Maps
  • Weather Map
  • Weather Widgets
  • user-avatar
    Login

    Hourly Weather Saint-Pierre i Miquelon

    Today, 24 November, Friday

    Time Temperature Precipitation Wind Pressure Humidity
    00:00 +1°C° 0 mm 11 mps 755 mmHg 78%
    01:00 0°C° 0 mm 10 mps 756 mmHg 79%
    02:00 +1°C° 0 mm 9 mps 755 mmHg 79%
    03:00 +1°C° 0 mm 9 mps 756 mmHg 79%
    04:00 +1°C° 0 mm 9 mps 756 mmHg 78%
    05:00 0°C° 0 mm 8 mps 756 mmHg 77%
    06:00 0°C° 0 mm 8 mps 756 mmHg 77%
    07:00 0°C° 0 mm 8 mps 757 mmHg 77%
    08:00 0°C° 0 mm 8 mps 757 mmHg 77%
    09:00 0°C° 0 mm 9 mps 757 mmHg 76%
    10:00 +1°C° 0 mm 9 mps 757 mmHg 76%
    11:00 +1°C° 0 mm 9 mps 758 mmHg 75%
    12:00 +1°C° 0 mm 9 mps 758 mmHg 73%
    13:00 +1°C° 0 mm 9 mps 758 mmHg 72%
    14:00 +1°C° 0 mm 10 mps 758 mmHg 71%
    15:00 +1°C° 0 mm 10 mps 759 mmHg 72%
    16:00 0°C° 0 mm 10 mps 760 mmHg 73%
    17:00 0°C° 0 mm 10 mps 760 mmHg 74%
    18:00 0°C° 0 mm 10 mps 761 mmHg 73%
    19:00 0°C° 0 mm 10 mps 761 mmHg 73%
    20:00 0°C° 0 mm 10 mps 762 mmHg 72%
    21:00 0°C° 0 mm 9 mps 762 mmHg 72%
    22:00 0°C° 0 mm 9 mps 763 mmHg 73%
    23:00 0°C° 0 mm 8 mps 763 mmHg 73%

    Tomorrow, 25 November, Saturday

    Time Temperature Precipitation Wind Pressure Humidity
    00:00 0°C° 0 mm 7 mps 764 mmHg 73%
    01:00 +1°C° 0 mm 6 mps 764 mmHg 73%
    02:00 +1°C° 0 mm 5 mps 765 mmHg 74%
    03:00 0°C° 0 mm 5 mps 765 mmHg 75%
    04:00 0°C° 0 mm 4 mps 765 mmHg 76%
    05:00 +1°C° 0 mm 3 mps 765 mmHg 77%
    06:00 0°C° 0 mm 4 mps 765 mmHg 77%
    07:00 +1°C° 0 mm 5 mps 765 mmHg 77%
    08:00 +1°C° 0 mm 6 mps 766 mmHg 77%
    09:00 +2°C° 0 mm 7 mps 765 mmHg 75%
    10:00 +2°C° 0 mm 8 mps 765 mmHg 73%
    11:00 +4°C° 0 mm 8 mps 765 mmHg 72%
    12:00 +5°C° 0 mm 9 mps 764 mmHg 74%
    13:00 +5°C° 0 mm 9 mps 764 mmHg 77%
    14:00 +5°C° 0 mm 9 mps 763 mmHg 79%
    15:00 +5°C° 0 mm 9 mps 763 mmHg 81%
    16:00 +5°C° 0 mm 10 mps 763 mmHg 83%
    17:00 +5°C° 0 mm 10 mps 763 mmHg 85%
    18:00 +5°C° 0 mm 10 mps 763 mmHg 86%
    19:00 +5°C° 0 mm 10 mps 763 mmHg 87%
    20:00 +5°C° 0 mm 10 mps 763 mmHg 88%
    21:00 +5°C° 0 mm 10 mps 762 mmHg 88%
    22:00 +5°C° 0 mm 10 mps 762 mmHg 89%
    23:00 +5°C° 0 mm 10 mps 762 mmHg 89%

    Day after tomorrow, 26 November, Sunday

    Time Temperature Precipitation Wind Pressure Humidity
    00:00 +5°C° 0 mm 10 mps 761 mmHg 90%
    01:00 +5°C° 0 mm 10 mps 760 mmHg 90%
    02:00 +5°C° 0 mm 10 mps 760 mmHg 90%
    03:00 +5°C° 0.1 mm 10 mps 759 mmHg 90%
    04:00 +5°C° 0.1 mm 10 mps 759 mmHg 89%
    05:00 +5°C° 0.1 mm 10 mps 758 mmHg 89%
    06:00 +4°C° 0.6 mm 11 mps 757 mmHg 88%
    07:00 +4°C° 0.6 mm 11 mps 757 mmHg 88%
    08:00 +4°C° 0.6 mm 11 mps 756 mmHg 88%
    09:00 +4°C° 1.4 mm 12 mps 755 mmHg 88%
    10:00 +4°C° 1.4 mm 13 mps 753 mmHg 89%
    11:00 +4°C° 1.4 mm 13 mps 752 mmHg 90%
    12:00 +5°C° 1 mm 13 mps 750 mmHg 91%
    13:00 +5°C° 1 mm 13 mps 748 mmHg 92%
    14:00 +7°C° 1 mm 13 mps 746 mmHg 93%
    15:00 +7°C° 0.3 mm 12 mps 745 mmHg 94%
    16:00 +7°C° 0.3 mm 10 mps 744 mmHg 95%
    17:00 +8°C° 0.3 mm 9 mps 743 mmHg 95%
    18:00 +8°C° 0.1 mm 10 mps 743 mmHg 95%
    19:00 +8°C° 0.1 mm 10 mps 744 mmHg 94%
    20:00 +7°C° 0.1 mm 11 mps 744 mmHg 93%
    21:00 +7°C° 0 mm 11 mps 745 mmHg 94%
    22:00 +7°C° 0 mm 11 mps 745 mmHg 94%
    23:00 +7°C° 0 mm 11 mps 746 mmHg 95%

    27 November, Monday

    Time Temperature Precipitation Wind Pressure Humidity
    00:00 +7°C° 0 mm 11 mps 746 mmHg 94%
    01:00 +7°C° 0 mm 10 mps 747 mmHg 92%
    02:00 +7°C° 0 mm 10 mps 747 mmHg 91%
    03:00 +6°C° 0 mm 10 mps 748 mmHg 89%
    04:00 +3°C° 0 mm 10 mps 748 mmHg 88%
    05:00 +2°C° 0 mm 10 mps 749 mmHg 86%
    06:00 +2°C° 0 mm 10 mps 750 mmHg 84%
    07:00 +2°C° 0 mm 9 mps 751 mmHg 81%
    08:00 +1°C° 0 mm 9 mps 752 mmHg 78%
    09:00 +1°C° 0.1 mm 9 mps 752 mmHg 78%
    10:00 +1°C° 0.1 mm 10 mps 753 mmHg 79%
    11:00 +1°C° 0.1 mm 10 mps 753 mmHg 79%
    12:00 +1°C° 0 mm 10 mps 753 mmHg 76%
    13:00 0°C° 0 mm 10 mps 753 mmHg 72%
    14:00 0°C° 0 mm 9 mps 753 mmHg 69%
    15:00 0°C° 0.1 mm 9 mps 754 mmHg 70%
    16:00 0°C° 0.1 mm 9 mps 754 mmHg 71%
    17:00 -1°C° 0.1 mm 8 mps 755 mmHg 71%
    18:00 -1°C° 0.2 mm 8 mps 755 mmHg 71%
    19:00 -1°C° 0.2 mm 9 mps 756 mmHg 72%
    20:00 -1°C° 0.2 mm 9 mps 756 mmHg 72%
    21:00 -2°C° 0.2 mm 10 mps 757 mmHg 73%
    22:00 -3°C° 0.2 mm 10 mps 757 mmHg 73%
    23:00 -3°C° 0.2 mm 11 mps 757 mmHg 74%

    28 November, Tuesday

    Time Temperature Precipitation Wind Pressure Humidity
    00:00 -3°C° 0.1 mm 11 mps 758 mmHg 71%
    01:00 -3°C° 0.1 mm 11 mps 758 mmHg 68%
    02:00 -3°C° 0.1 mm 11 mps 759 mmHg 65%
    03:00 -4°C° 0.1 mm 11 mps 759 mmHg 66%
    04:00 -4°C° 0.1 mm 11 mps 760 mmHg 68%
    05:00 -4°C° 0.1 mm 11 mps 760 mmHg 69%
    06:00 -4°C° 0.1 mm 11 mps 761 mmHg 68%
    07:00 -4°C° 0.1 mm 11 mps 762 mmHg 66%
    08:00 -4°C° 0.1 mm 11 mps 762 mmHg 65%
    09:00 -4°C° 0 mm 11 mps 763 mmHg 64%
    10:00 -4°C° 0 mm 10 mps 764 mmHg 63%
    11:00 -4°C° 0 mm 10 mps 764 mmHg 62%
    12:00 -4°C° 0 mm 10 mps 765 mmHg 62%
    13:00 -4°C° 0 mm 10 mps 765 mmHg 62%
    14:00 -4°C° 0 mm 10 mps 765 mmHg 62%
    15:00 -4°C° 0 mm 9 mps 766 mmHg 63%
    16:00 -5°C° 0 mm 9 mps 767 mmHg 65%
    17:00 -5°C° 0 mm 9 mps 768 mmHg 66%
    18:00 -5°C° 0 mm 8 mps 768 mmHg 66%
    19:00 -5°C° 0 mm 8 mps 769 mmHg 66%
    20:00 -4°C° 0 mm 7 mps 769 mmHg 66%
    21:00 -4°C° 0 mm 7 mps 769 mmHg 67%
    22:00 -4°C° 0 mm 7 mps 769 mmHg 68%
    23:00 -3°C° 0 mm 6 mps 769 mmHg 68%

    29 November, Wednesday

    Time Temperature Precipitation Wind Pressure Humidity
    00:00 -3°C° 0 mm 7 mps 769 mmHg 69%
    01:00 -2°C° 0 mm 7 mps 768 mmHg 70%
    02:00 -2°C° 0 mm 7 mps 768 mmHg 70%
    03:00 -2°C° 0 mm 8 mps 768 mmHg 72%
    04:00 -1°C° 0 mm 8 mps 767 mmHg 73%
    05:00 -1°C° 0 mm 9 mps 767 mmHg 74%
    06:00 -1°C° 0 mm 9 mps 766 mmHg 75%
    07:00 0°C° 0 mm 10 mps 766 mmHg 76%
    08:00 -1°C° 0 mm 11 mps 765 mmHg 77%
    09:00 +1°C° 0 mm 11 mps 764 mmHg 79%
    10:00 +2°C° 0 mm 12 mps 763 mmHg 80%
    11:00 +3°C° 0 mm 12 mps 763 mmHg 82%
    12:00 +3°C° 0 mm 12 mps 762 mmHg 83%
    13:00 +4°C° 0 mm 12 mps 761 mmHg 85%
    14:00 +5°C° 0 mm 12 mps 760 mmHg 86%
    15:00 +6°C° 0.3 mm 11 mps 759 mmHg 88%
    16:00 +6°C° 0.3 mm 11 mps 759 mmHg 90%
    17:00 +6°C° 0.3 mm 11 mps 759 mmHg 91%
    18:00 +6°C° 0.3 mm 10 mps 759 mmHg 92%
    19:00 +6°C° 0.3 mm 9 mps 759 mmHg 93%
    20:00 +6°C° 0.3 mm 9 mps 759 mmHg 94%
    21:00 +5°C° 0 mm 8 mps 759 mmHg 94%
    22:00 +5°C° 0 mm 7 mps 759 mmHg 94%
    23:00 +4°C° 0 mm 6 mps 759 mmHg 93%
    Show more